Showing default

OPS 9316 (IDSCS 6), 2220

Orbit data source: Space-Track

OPS 9316 (IDSCS 6), 2220 is a payload satellite owned by USAF SSD (US) in GEO that was launched on Thu, 16 Jun 1966 UTC via a TITAN IIIC launch vehicle from the Air Force Eastern Test Range (AFETR). Payload-class satellites include a variety of spacecraft equipped with specific instruments for various scientific and technological missions. These include communications satellites like Starlink; space stations such as the ISS; scientific satellites like the Hubble; Earth observation satellites from companies like Planet Labs, Umbra, and HawkEye 360; GPS; miniature CubeSats for education and research; and military/defense satellites.

Loading next visibility...
Identifier
2220, 1966-053G
Orbit
GEO
Last TLE update
2 days ago
Origin
Manufacturer
Philco-Ford WDL
Mission
Non-operational Defense Communications
Bus & Motor
IDCSP, Unknown motor
Mass
45 kg wet, 45 kg dry
Launch date (UTC)
1966-06-16 (59 years ago)
Launch vehicle
TITAN IIIC
Launch site
Air Force Eastern Test Range (AFETR)
Object type
Payload
Rocket body
Debris
Shape & HBR
Ico Poly, 0.9 m
Radar Cross Section
0.926 m², Medium (>0.1 m² and < 1m²)

Expand to show TLE details & history

TLE from 2 days ago
0 OPS 9316 (IDSCS 6)
1 02220U 66053G   25182.45749610 -.00000052  00000-0  00000-0 0  9998
2 02220   7.7945  49.3593 0065009 171.7694  29.2087  1.07155969135299
Epoch: 2025-07-01T10:58Z
TLE epoch observation values (Epoch: 2025-07-01T10:58:47.663Z)
Latitude
-2.84128°
Longitude
166.08475°
Altitude
33,732.28 km
Speed
3.161 km/s
True Right ascension
16h 42m 08s
True Declination
-2° 50' 18"
Sunlit
Object was in daylight at epoch
Visualization orbit readout
Latitude
3.22933°
Longitude
120.60736°
Altitude
33,708.567 km
Speed
3.163 km/s
Apparent Right ascension
13h 18m 22s
Apparent Declination
-2° 49' 35"
Sunlit
Object is in daylight
Visualization observer readout
Local Sidereal Time
16:42:48
Azimuth
240.48° WSW
Elevation
26.7°
Doppler factor
1
Orbital elements
Apogee altitude
34,224.115 km
Perigee altitude
33,699.623 km
Semi-major axis
40,340.006 km
Eccentricity
0.0065
Inclination
7.7945°
RAAN
49.3593°
Arg. of periapsis
171.7694°
True anomaly
Unknown
Mean anomaly
29.2087°
Eccentric anomaly
Unknown
Mean motion
0.26788 °/min
Orbital period
1,343.89 mins
BSTAR
0
Loading historical data...
2220 neighbors
Loading maneuver chart data...
Loading SW <> Apogee altitude chart data...
Loading historical data...
Loading historical data...
Loading historical data...
Loading historical data...
Loading historical data...
Loading historical data...
Loading historical data...

OPS 9316 (IDSCS 6) Visibility forecast

Observer location: undefined°, undefined°

Span
Click to sort rows by Start time (UTC) header in descending order
Start Az.
Max El. time (UTC)
Max El. Az.
Max El.
End time (UTC)
End Az.
1440 mins2025-07-03 04:57:22.281Z240.464° WSW2025-07-04 00:32:22.281Z222.409° SW34.505°2025-07-04 04:57:22.281Z210.429° SW
|